This is the latest recevied weather packets stored in our database for station/object K5SVV. If no packets are shown the sender has not sent any weather packets the latest 10 day(s).
| Time | Temp. | Humidity | Pressure | Rain* | Wind** | Luminosity | Snow |
|---|---|---|---|---|---|---|---|
| 1788486162 | 26.67° C | 80% | 1011.9 hPa | 0 mm | - | 0 W/m² | - |
| 1788485858 | 26.67° C | 80% | 1011.9 hPa | 0 mm | - | 0 W/m² | - |
| 1788485554 | 27.22° C | 80% | 1011.8 hPa | 0 mm | - | 0 W/m² | - |
| 1788485250 | 27.22° C | 80% | 1011.6 hPa | 0 mm | - | 0 W/m² | - |
| 1788484949 | 27.22° C | 80% | 1011.5 hPa | 0 mm | - | 0 W/m² | - |
| 1788484648 | 27.22° C | 80% | 1011.4 hPa | 0 mm | - | 0 W/m² | - |
| 1788484344 | 27.22° C | 80% | 1011.5 hPa | 0 mm | - | 0 W/m² | - |
| 1788484039 | 27.78° C | 80% | 1011.4 hPa | 0 mm | - | 0 W/m² | - |
| 1788483736 | 27.78° C | 80% | 1011.3 hPa | 0 mm | - | 0 W/m² | - |
| 1788483430 | 27.78° C | 80% | 1011.6 hPa | 0 mm | - | 0 W/m² | - |
| 1788483127 | 28.33° C | 79% | 1011.4 hPa | 0 mm | - | 1 W/m² | - |
| 1788482821 | 28.33° C | 78% | 1011.4 hPa | 0 mm | - | 3 W/m² | - |
| 1788482521 | 28.89° C | 77% | 1011.5 hPa | 0 mm | - | 6 W/m² | - |
| 1788482211 | 28.89° C | 75% | 1011.2 hPa | 0 mm | - | 10 W/m² | - |
| 1788481907 | 28.89° C | 72% | 1011.5 hPa | 0 mm | - | 13 W/m² | - |
| 1788481603 | 29.44° C | 71% | 1011.1 hPa | 0 mm | - | 18 W/m² | - |
| 1788481298 | 29.44° C | 70% | 1011.3 hPa | 0 mm | - | 22 W/m² | - |
| 1788480993 | 29.44° C | 67% | 1011.1 hPa | 0 mm | - | 25 W/m² | - |
| 1788480692 | 30° C | 66% | 1011.1 hPa | 0 mm | - | 29 W/m² | - |
| 1788480387 | 30° C | 65% | 1011.2 hPa | 0 mm | - | 32 W/m² | - |
| 1788480083 | 30° C | 64% | 1011 hPa | 0 mm | - | 36 W/m² | - |
| 1788479783 | 30.56° C | 64% | 1011.2 hPa | 0 mm | - | 39 W/m² | - |
| 1788479479 | 30.56° C | 63% | 1011.2 hPa | 0 mm | - | 61 W/m² | - |
| 1788479173 | 30.56° C | 62% | 1011.2 hPa | 0 mm | - | 73 W/m² | - |
| 1788478869 | 30.56° C | 63% | 1011 hPa | 0 mm | - | 51 W/m² | - |
* Rain latest hour (hover to see other rain measurements)
** Current wind speed in m/s (hover to see current wind gust speed)